Weather in Yeremino

Russia / Sverdlovsk Oblast     59°49′36″N   63°10′31″E
temp.,
°C
wind,
m/s
gust,
m/s
humid.,
%
clouds,
%
prec.,
mm/h
press.,
hPa
HPBL,
m
18 june, fri
fri1823:00+14nnw5124626 0.0 1009673
02:00+11ne396073 0.0 1011607
05:00+9n411569 0.0 1014798
08:00+12n610445 0.0 10151379
11:00+16n693174 0.0 10152585
14:00+18nnw5826100 0.0 10153029
17:00+18nnw592796 0.0 10142854
20:00+15n483855 0.0 10161727
19 june, sat
sat1923:00+9nw23522 0.0 101646
02:00+7wnw235894 0.0 101658
05:00+7w28656 0.0 1016189
08:00+14wnw3556100 0.0 1015802
11:00+13wnw3564100 0.0 1014709
14:00+17wnw3550100 0.0 10111802
17:00+20wsw2539100 0.0 10091880
20:00+15w4978100 0.1 1008526
20 june, sun
sun2023:00+13sw3893100 0.1 1005272
02:00+13sw4129852 0.9 1002411
05:00+14wnw614920 1.3 1000848
08:00+13nw71464100 0.1 10021600
11:00+10nw81755100 0.2 10041513
14:00+11nw91853100 0.0 10061711
17:00+8nnw92091100 1.1 10091254
20:00+9n81687100 0.3 1014943
21 june, mon
mon2123:00+9n61474100 0.4 1017717
02:00+8n513755 0.0 1019563
05:00+7nnw411757 0.0 1021381
08:00+12n46535 0.0 1021668
11:00+16nnw343221 0.0 10211408
14:00+19wnw3428100 0.0 10191781
17:00+12nnw3672100 0.3 1019151
20:00+9ese3796100 3.4 1016284
22 june, tue
tue2223:00+9sse4119596 3.6 1013351
02:00+9sse3794100 0.0 1010256
05:00+10n1197100 0.9 1009109
08:00+10n4109679 0.1 1011616
11:00+10n61190100 0.3 10141170
14:00+13n6126777 0.3 10171505
17:00+15nne6125495 0.5 10191929
20:00+14n410625 0.0 10221299